[[{"header":{"parameterUnit":"m.s-1","parameterCategory":1,"la1":30.2991,"la2":30.254,"lo1":-89.0895,"lo2":-89.0444,"dy":0.0017,"dx":0.0017,"nx":28,"ny":28,"refTime":"2024-03-11T03:00:00:Z","depth":0,"parameterNumber":2,"parameterNumberName":"U-component_of_WINDS"},"data":[0,0,0,0,0,0,0,0,0,0,0,0,0,0,0,0,0,0,0,0,0,0,0,0,0,0,0,0,0,0,0,0,0,0,0,0,0,0,0,0,0,0,0,0,0,0,0,0,0,0,0,0,0,0,0,0,0,0,-0.73,-0.73,0,-0.7313,-0.7313,-0.7314,-0.7304,-0.7304,-0.7303,-0.7303,-0.7318,-0.7319,-0.732,0,0,0,0,0,0,0,0,0,0,0,0,0,-0.7267,-0.7268,-0.73,-0.73,-0.73,-0.7313,-0.7313,-0.7314,-0.7304,-0.7304,-0.7303,-0.7303,-0.7318,-0.7319,-0.732,0,0,0,0,0,0,0,0,0,0,0,0,0,-0.7281,-0.7268,-0.7299,-0.7297,-0.7297,-0.7313,-0.7313,-0.7314,-0.7304,-0.7304,-0.7303,-0.7302,-0.7318,-0.7319,-0.732,-0.7341,0,0,-0.7324,-0.7324,0,0,0,0,0,0,0,0,-0.728,-0.7282,-0.7297,-0.7297,-0.7297,-0.7306,-0.7308,-0.7323,-0.7304,-0.7301,-0.7303,-0.7302,-0.7315,-0.7316,-0.732,-0.7341,-0.7342,-0.7324,-0.7325,-0.7325,-0.7326,0,0,0,0,0,0,0,-0.7279,-0.7282,-0.7305,-0.7297,-0.7297,-0.7295,-0.7297,-0.7311,-0.7312,-0.7302,-0.7301,-0.7303,-0.7315,-0.7319,-0.7321,-0.7342,-0.7324,-0.7325,-0.7326,-0.7326,-0.7382,-0.7383,0,0,0,0,0,0,-0.7278,-0.7281,-0.7305,-0.7305,-0.7287,-0.7297,-0.7298,-0.7304,-0.7311,-0.7312,-0.7303,-0.7302,-0.7317,-0.7319,-0.7321,-0.7346,-0.7325,-0.7326,-0.7327,-0.7381,-0.7382,-0.7383,0,0,0,0,0,0,-0.7278,-0.7281,-0.7304,-0.7293,-0.7296,-0.7298,-0.7305,-0.7305,-0.7309,-0.7313,-0.7313,-0.7307,-0.7317,-0.7319,-0.7336,-0.7347,-0.7327,-0.7328,-0.738,-0.7381,-0.7383,-0.7396,0,0,0,0,0,0,-0.7277,-0.728,-0.7288,-0.7293,-0.7296,-0.7318,-0.7305,-0.7305,-0.7311,-0.731,-0.7317,-0.7317,-0.7317,-0.7334,-0.7337,-0.7348,-0.7329,-0.7379,-0.7381,-0.7382,-0.7395,-0.7398,-0.74,0,0,0,0,0,-0.7276,-0.7291,-0.7288,-0.7291,-0.7305,-0.7319,-0.7321,-0.7319,-0.7312,-0.732,-0.7322,-0.7317,-0.7345,-0.7336,-0.7339,-0.7351,-0.7379,-0.738,-0.7382,-0.7394,-0.7397,-0.74,0,0,0,0,0,0,-0.7287,-0.7292,-0.7288,-0.7306,-0.7312,-0.7317,-0.7327,-0.7323,-0.7331,-0.733,-0.7328,-0.733,-0.7348,-0.7351,-0.7341,-0.7371,-0.7361,-0.7363,-0.7369,-0.7372,-0.7374,-0.7373,-0.733,0,0,0,0,0,-0.7291,-0.7301,-0.7305,-0.732,-0.7323,-0.7324,-0.733,-0.7329,-0.7335,-0.7338,-0.7341,-0.7348,-0.7359,-0.7365,-0.7375,-0.7395,-0.7397,-0.7405,-0.7408,-0.741,-0.7412,-0.7424,-0.7427,-0.7388,-0.7388,-0.7388,0,0,-0.7301,-0.7305,-0.7311,-0.7323,-0.7327,-0.7338,-0.7327,-0.7338,-0.7347,-0.734,-0.7355,-0.7358,-0.7366,-0.7385,-0.7393,-0.7388,-0.7423,-0.7412,-0.7414,-0.7415,-0.7426,-0.743,-0.7433,-0.739,-0.7389,-0.7389,0,0,-0.7323,-0.7327,-0.734,-0.7345,-0.7352,-0.7353,-0.7356,-0.7362,-0.7364,-0.738,-0.7375,-0.7385,-0.7403,-0.7409,-0.7414,-0.744,-0.7436,-0.7443,-0.7457,-0.7469,-0.7472,-0.7474,-0.7484,-0.7488,-0.7445,-0.7445,-0.7445,0,-0.7334,-0.735,-0.7348,-0.736,-0.7366,-0.736,-0.7374,-0.7379,-0.7389,-0.7393,-0.7387,-0.741,-0.7414,-0.7435,-0.7441,-0.7446,-0.745,-0.7442,-0.7471,-0.7474,-0.7476,-0.7486,-0.7489,-0.7446,-0.7446,-0.7446,-0.7446,0,-0.7363,-0.7374,-0.7384,-0.7394,-0.7401,-0.7414,-0.7414,-0.7422,-0.742,-0.7422,-0.7439,-0.7444,-0.7455,-0.746,-0.7458,-0.748,-0.7477,-0.7471,-0.7461,-0.7481,-0.749,-0.7493,-0.7447,-0.7447,-0.7447,-0.7447,0,0,-0.7393,-0.7402,-0.7405,-0.741,-0.7417,-0.7426,-0.744,-0.745,-0.7457,-0.7464,-0.7476,-0.7491,-0.7486,-0.7492,-0.7491,-0.7502,-0.7523,-0.7495,-0.7495,-0.75,-0.7548,-0.7553,-0.7557,-0.752,-0.7521,-0.7521,-0.7548,0,-0.7416,-0.7439,-0.7438,-0.7459,-0.747,-0.7465,-0.7476,-0.7483,-0.7485,-0.7495,-0.7498,-0.7509,-0.7501,-0.7505,-0.7515,-0.7518,-0.7532,-0.7516,-0.7531,-0.7532,-0.753,-0.7561,-0.7566,-0.759,-0.7551,-0.7552,-0.7552,0,-0.7446,-0.7454,-0.7477,-0.7483,-0.7488,-0.7498,-0.7508,-0.7518,-0.7525,-0.7526,-0.7533,-0.7531,-0.7546,-0.7535,-0.7555,-0.7544,-0.755,-0.7553,-0.7554,-0.7556,-0.7543,-0.7564,-0.7598,-0.7602,-0.7557,-0.7557,-0.7556,0,-0.7466,-0.7483,-0.7498,-0.7503,-0.7511,-0.7518,-0.7522,-0.7529,-0.7536,-0.7545,-0.7549,-0.756,-0.7566,-0.7575,-0.7576,-0.7568,-0.7597,-0.7586,-0.7599,-0.7599,-0.7605,-0.7604,-0.7641,-0.7609,-0.7609,-0.7609,-0.7609,0,-0.7493,-0.7507,-0.7508,-0.7517,-0.7533,-0.7532,-0.7548,-0.7552,-0.7558,-0.7569,-0.7565,-0.7576,-0.7576,-0.7587,-0.7589,-0.7606,-0.7608,-0.761,-0.761,-0.761,-0.761,-0.7615,-0.7613,-0.761,-0.7609,-0.7609,-0.7609,0,-0.7517,-0.7519,-0.7535,-0.7542,-0.7544,-0.7555,-0.7561,-0.7571,-0.7573,-0.7587,-0.759,-0.7594,-0.7606,-0.7609,-0.7624,-0.7624,-0.7645,-0.7643,-0.7642,-0.7642,-0.7655,-0.7654,-0.7696,-0.7701,-0.7665,-0.7666,-0.7666,0,-0.7534,-0.7545,-0.7552,-0.7559,-0.7563,-0.7574,-0.7581,-0.7581,-0.7588,-0.7598,-0.7607,-0.7619,-0.7629,-0.765,-0.7655,-0.7667,-0.7665,-0.7679,-0.7667,-0.7667,-0.7666,-0.7665,-0.7667,-0.7681,-0.7682,-0.7682,-0.7682,0,-0.7564,-0.7564,-0.7574,-0.7584,-0.7592,-0.76,-0.7608,-0.7614,-0.7615,-0.7624,-0.7637,-0.7644,-0.766,-0.7672,-0.7684,-0.7689,-0.7686,-0.7686,-0.769,-0.769,-0.7689,-0.769,-0.7649,-0.7685,-0.7685,-0.7685,-0.7685,-0.7684,-0.7586,-0.7595,-0.7602,-0.7613,-0.7619,-0.7626,-0.7636,-0.7639,-0.765,-0.7662,-0.7662,-0.7676,-0.7684,-0.77,-0.7706,-0.7717,-0.7713,-0.7718,-0.772,-0.7721,-0.7722,-0.7687,-0.7719,-0.7719,-0.7719,-0.7719,-0.7719,0,-0.7616,-0.762,-0.763,-0.7641,-0.765,-0.7646,-0.7654,-0.7662,-0.7675,-0.7683,-0.7692,-0.7708,-0.772,-0.7726,-0.7738,-0.7747,-0.7746,-0.775,-0.775,-0.7751,-0.7725,-0.7721,-0.7751,-0.7751,-0.7751,-0.7751,-0.7751,-0.7751,-0.7632,-0.7648,-0.7649,-0.7668,-0.7673,-0.7686,-0.7692,-0.7699,-0.7705,-0.7722,-0.7732,-0.7736,-0.7743,-0.7756,-0.7768,-0.7769,-0.7774,-0.7779,-0.778,-0.7756,-0.7753,-0.775,-0.7745,-0.778,-0.778,-0.7805,-0.7805,-0.7805]},{"header":{"parameterUnit":"m.s-1","parameterCategory":1,"la1":30.2991,"la2":30.254,"lo1":-89.0895,"lo2":-89.0444,"dy":0.0017,"dx":0.0017,"nx":28,"ny":28,"refTime":"2024-03-11T03:00:00:Z","depth":0,"parameterNumber":3,"parameterNumberName":"V-component_of_WINDS"},"data":[0,0,0,0,0,0,0,0,0,0,0,0,0,0,0,0,0,0,0,0,0,0,0,0,0,0,0,0,0,0,0,0,0,0,0,0,0,0,0,0,0,0,0,0,0,0,0,0,0,0,0,0,0,0,0,0,0,0,3.7725,3.7727,0,3.7821,3.7822,3.7823,3.7798,3.7797,3.7795,3.7793,3.7885,3.7889,3.7893,0,0,0,0,0,0,0,0,0,0,0,0,0,3.7516,3.752,3.7725,3.7727,3.7728,3.7821,3.7822,3.7823,3.7799,3.7797,3.7794,3.7792,3.7884,3.7889,3.7894,0,0,0,0,0,0,0,0,0,0,0,0,0,3.7608,3.7521,3.7725,3.7727,3.7728,3.782,3.7822,3.7824,3.7799,3.7796,3.7794,3.7791,3.7882,3.7888,3.7894,3.7989,0,0,3.7914,3.7916,0,0,0,0,0,0,0,0,3.7603,3.7616,3.7725,3.7727,3.7728,3.7795,3.7782,3.7879,3.78,3.7772,3.7793,3.779,3.7857,3.7865,3.7889,3.7994,3.7997,3.7914,3.7918,3.7921,3.7922,0,0,0,0,0,0,0,3.7597,3.7612,3.7763,3.7727,3.7729,3.7721,3.7731,3.78,3.7829,3.7774,3.7773,3.7785,3.7857,3.7883,3.7891,3.7999,3.7914,3.792,3.7923,3.7926,3.8183,3.8186,0,0,0,0,0,0,3.759,3.7607,3.776,3.7766,3.7658,3.7727,3.7738,3.7776,3.7828,3.7833,3.7787,3.7783,3.7874,3.7884,3.7894,3.8007,3.7921,3.7927,3.793,3.818,3.8184,3.8187,0,0,0,0,0,0,3.7586,3.7604,3.7756,3.7686,3.7705,3.7734,3.7777,3.778,3.7806,3.7838,3.7842,3.7809,3.7872,3.7885,3.7966,3.801,3.7929,3.7935,3.8177,3.8181,3.8185,3.8234,0,0,0,0,0,0,3.758,3.7602,3.764,3.7687,3.7709,3.7828,3.7779,3.7784,3.7817,3.7813,3.7859,3.7864,3.7871,3.7956,3.7972,3.8017,3.794,3.8173,3.8179,3.8184,3.8229,3.824,3.8249,0,0,0,0,0,3.7572,3.765,3.7642,3.7661,3.7757,3.7831,3.7843,3.7851,3.7821,3.7858,3.7878,3.7863,3.8003,3.7965,3.7982,3.803,3.817,3.8177,3.8184,3.8224,3.8238,3.8249,0,0,0,0,0,0,3.7606,3.7656,3.7648,3.7744,3.7783,3.7826,3.7874,3.7865,3.7913,3.7907,3.7912,3.7923,3.8005,3.8025,3.7982,3.8123,3.8082,3.8092,3.8106,3.812,3.813,3.8122,3.7945,0,0,0,0,0,3.7625,3.7682,3.7722,3.7802,3.7823,3.7845,3.7877,3.788,3.792,3.7936,3.7963,3.8001,3.8053,3.8088,3.8138,3.8232,3.824,3.8273,3.8283,3.8292,3.83,3.8349,3.8363,3.821,3.821,3.821,0,0,3.7663,3.7698,3.7734,3.781,3.7841,3.7898,3.7859,3.7922,3.7964,3.7945,3.8023,3.8044,3.8086,3.8173,3.8213,3.8193,3.8344,3.83,3.8307,3.8311,3.8357,3.8372,3.8385,3.8214,3.8214,3.8213,0,0,3.7763,3.7796,3.7865,3.7897,3.7945,3.796,3.7976,3.8021,3.8034,3.8113,3.8099,3.8148,3.8239,3.827,3.8297,3.8407,3.8394,3.8423,3.8477,3.8524,3.8536,3.8547,3.8584,3.8598,3.8432,3.8432,3.8432,0,3.7804,3.7893,3.7902,3.7966,3.7998,3.7986,3.8055,3.8085,3.8146,3.8168,3.8145,3.8258,3.8286,3.8379,3.8406,3.8429,3.8446,3.8418,3.8534,3.8545,3.8555,3.8591,3.8605,3.8436,3.8435,3.8435,3.8435,0,3.794,3.8001,3.8051,3.8112,3.815,3.8216,3.8233,3.8271,3.827,3.8285,3.8364,3.8397,3.8453,3.8475,3.8475,3.8568,3.8554,3.8533,3.8491,3.8573,3.8606,3.862,3.844,3.8439,3.8438,3.8437,0,0,3.8063,3.8128,3.8146,3.8173,3.8225,3.8271,3.8335,3.8391,3.8422,3.8465,3.8517,3.8594,3.8575,3.8606,3.8608,3.865,3.8732,3.8624,3.8625,3.8641,3.8834,3.8849,3.8864,3.8724,3.8727,3.8729,3.883,0,3.8166,3.8282,3.8291,3.8394,3.8449,3.8438,3.8493,3.853,3.8546,3.8593,3.861,3.8664,3.8635,3.8654,3.8695,3.8714,3.8771,3.8707,3.877,3.8773,3.8759,3.8882,3.8898,3.8992,3.8843,3.8846,3.8847,0,3.8302,3.8349,3.8458,3.8501,3.8524,3.8574,3.8626,3.8672,3.8712,3.872,3.8755,3.8752,3.8815,3.8772,3.8858,3.8814,3.8841,3.8854,3.8857,3.8862,3.8814,3.8889,3.9022,3.9035,3.8868,3.8867,3.8865,0,3.8378,3.847,3.8546,3.8569,3.8622,3.8657,3.868,3.8717,3.875,3.8794,3.8815,3.8865,3.8892,3.893,3.8939,3.8908,3.9025,3.8983,3.9031,3.9031,3.9055,3.9053,3.9193,3.9075,3.9075,3.9075,3.9075,0,3.8491,3.8558,3.8581,3.8628,3.8701,3.871,3.8782,3.8802,3.8836,3.8884,3.8877,3.8923,3.8933,3.898,3.8987,3.9056,3.9068,3.9075,3.9076,3.9075,3.9074,3.9091,3.9085,3.9079,3.9078,3.9077,3.9077,0,3.8589,3.8608,3.869,3.8733,3.8745,3.8797,3.8832,3.8875,3.8891,3.8952,3.8967,3.899,3.9045,3.9058,3.9123,3.9128,3.9209,3.9204,3.9196,3.9195,3.9242,3.9236,3.9396,3.9416,3.9287,3.9288,3.9289,0,3.8659,3.871,3.8758,3.8791,3.8816,3.887,3.8903,3.8913,3.8948,3.8997,3.9034,3.9088,3.9132,3.9219,3.924,3.9289,3.9284,3.9337,3.9291,3.9288,3.9283,3.9279,3.9283,3.9345,3.9346,3.9347,3.9348,0,3.8781,3.8787,3.8837,3.889,3.893,3.8972,3.9011,3.9038,3.9053,3.9092,3.9149,3.9183,3.9249,3.9302,3.9351,3.9372,3.9362,3.9363,3.9376,3.9375,3.9367,3.937,3.9217,3.9359,3.9358,3.9357,3.9356,3.9356,3.8866,3.891,3.8951,3.9005,3.9036,3.9073,3.9116,3.9137,3.9185,3.9241,3.9243,3.9304,3.9341,3.9406,3.943,3.9476,3.9459,3.9479,3.9484,3.9488,3.9492,3.9361,3.9485,3.9484,3.9484,3.9484,3.9484,0,3.8985,3.9011,3.9062,3.9118,3.916,3.915,3.9192,3.9228,3.9282,3.9318,3.9361,3.9425,3.9476,3.9501,3.9551,3.9583,3.9579,3.9595,3.9592,3.9596,3.9504,3.9487,3.9597,3.9597,3.9597,3.9597,3.9597,3.9597,3.9053,3.9126,3.9138,3.9225,3.925,3.9311,3.9336,3.9369,3.9397,3.9469,3.9512,3.9529,3.956,3.9612,3.9657,3.9663,3.968,3.9698,3.9702,3.9615,3.9603,3.9592,3.9576,3.9703,3.9703,3.979,3.9791,3.9791]}]]